GW0828 Weather Reports


Display with metric or nautical units.
time (UTC)temp
F
wind
direction
speed
MPH
gust
MPH
rain 1hr
in
rain 24hr
in
rain mn
in
humidity
%
barometer
mb
20260901133535 61 0 1.0 4.0 0.00 0.02 0.00 86 1019.9
20260901133109 61 13 1.0 4.0 0.00 0.02 0.00 87 1019.8
20260901132536 61 18 1.0 5.0 0.00 0.02 0.00 87 1019.7
20260901132036 61 17 3.0 5.0 0.00 0.02 0.00 87 1019.6
20260901131601 60 5 2.0 5.0 0.00 0.02 0.00 87 1019.4
20260901131036 60 25 2.0 4.0 0.00 0.02 0.00 88 1019.4
20260901130536 60 40 2.0 4.0 0.00 0.02 0.00 88 1019.4
20260901130103 60 342 1.0 4.0 0.00 0.02 0.00 87 1019.4
20260901125535 60 305 0.0 3.0 0.00 0.02 0.00 87 1019.4
20260901125035 61 320 0.0 2.0 0.00 0.02 0.00 87 1019.4
20260901124602 61 0 0.0 3.0 0.00 0.02 0.00 87 1019.2
20260901124036 61 14 0.0 3.0 0.00 0.02 0.00 87 1019.1
20260901123536 61 15 0.0 3.0 0.00 0.02 0.00 87 1019.2
20260901123056 61 0 0.0 2.0 0.00 0.02 0.00 87 1019.1
20260901122535 61 0 0.0 3.0 0.00 0.02 0.00 87 1019.1
20260901122037 61 75 1.0 3.0 0.00 0.02 0.00 87 1019.0
20260901121556 61 75 1.0 3.0 0.00 0.02 0.00 87 1018.9
20260901121035 61 0 0.0 2.0 0.00 0.02 0.00 86 1019.0
20260901120538 61 0 0.0 1.0 0.00 0.02 0.00 86 1019.0
20260901120103 61 0 0.0 1.0 0.00 0.02 0.00 86 1018.9
20260901115538 61 75 0.0 0.0 0.00 0.02 0.00 86 1018.9
20260901115042 62 0 0.0 0.0 0.00 0.02 0.00 85 1018.9
20260901114559 62 0 0.0 2.0 0.00 0.02 0.00 85 1018.9
20260901114040 62 0 0.0 2.0 0.00 0.02 0.00 85 1018.8
20260901113537 62 75 0.0 2.0 0.00 0.02 0.00 85 1018.8
20260901113056 62 123 0.0 1.0 0.00 0.02 0.00 85 1018.9
20260901112534 62 0 0.0 1.0 0.00 0.02 0.00 85 1018.9
20260901112035 62 0 0.0 1.0 0.00 0.02 0.00 84 1018.9
20260901111605 62 0 0.0 3.0 0.00 0.02 0.00 84 1019.0
20260901111034 62 0 0.0 3.0 0.00 0.02 0.00 84 1018.9
20260901110536 62 123 0.0 3.0 0.00 0.02 0.00 84 1018.9
20260901105538 62 124 1.0 3.0 0.00 0.02 0.00 84 1018.9
20260901105038 62 121 0.0 3.0 0.00 0.02 0.00 84 1018.8
20260901104602 62 117 1.0 3.0 0.00 0.02 0.00 84 1018.9
20260901104035 62 0 1.0 3.0 0.00 0.02 0.00 84 1019.0
20260901103537 62 0 1.0 3.0 0.00 0.02 0.00 84 1019.1
20260901103058 62 116 1.0 3.0 0.00 0.02 0.00 84 1019.1
20260901102537 62 0 0.0 3.0 0.00 0.02 0.00 85 1019.0
20260901102038 62 115 0.0 2.0 0.00 0.02 0.00 85 1019.1
20260901101556 62 0 0.0 2.0 0.00 0.02 0.00 85 1019.1
20260901101038 63 0 0.0 2.0 0.00 0.02 0.00 85 1019.3
20260901100538 63 116 0.0 4.0 0.00 0.02 0.00 86 1019.3
20260901100054 62 116 2.0 4.0 0.00 0.02 0.00 86 1019.4
20260901095538 62 116 2.0 4.0 0.00 0.02 0.00 86 1019.5
20260901095038 62 116 1.0 3.0 0.00 0.02 0.00 87 1019.4
20260901094600 62 113 0.0 3.0 0.00 0.02 0.00 87 1019.3
20260901094037 62 133 0.0 2.0 0.00 0.02 0.00 87 1019.4
20260901093537 62 133 0.0 2.0 0.00 0.02 0.00 87 1019.6
20260901093100 62 0 0.0 0.0 0.00 0.02 0.00 87 1019.7
20260901092537 62 0 0.0 0.0 0.00 0.02 0.00 87 1019.7
20260901092037 62 0 0.0 0.0 0.00 0.02 0.00 87 1019.7
20260901091607 62 0 0.0 0.0 0.00 0.02 0.00 86 1019.7
20260901091039 63 0 0.0 0.0 0.00 0.02 0.00 86 1019.6
20260901090539 63 0 0.0 0.0 0.00 0.02 0.00 86 1019.6
20260901090104 63 0 0.0 0.0 0.00 0.02 0.00 86 1019.8
20260901085537 63 0 0.0 1.0 0.00 0.02 0.00 86 1019.9
20260901085038 63 0 0.0 1.0 0.00 0.02 0.00 86 1020.0
20260901084553 63 0 0.0 1.0 0.00 0.02 0.00 86 1019.9
20260901084037 63 0 0.0 0.0 0.00 0.02 0.00 86 1020.0
20260901083538 63 0 0.0 0.0 0.00 0.02 0.00 86 1020.1
20260901083101 63 0 0.0 1.0 0.00 0.02 0.00 86 1020.1
20260901082538 63 0 0.0 2.0 0.00 0.02 0.00 86 1020.2
20260901082037 63 0 0.0 2.0 0.00 0.02 0.00 85 1020.3
20260901081559 63 0 0.0 3.0 0.00 0.02 0.00 86 1020.5
20260901081038 63 133 1.0 4.0 0.00 0.02 0.00 86 1020.6
20260901080538 63 147 1.0 4.0 0.00 0.02 0.00 86 1020.6
20260901080112 63 148 1.0 4.0 0.00 0.02 0.00 86 1020.7
20260901075538 63 156 1.0 3.0 0.00 0.02 0.00 86 1020.9
20260901075037 63 121 1.0 3.0 0.00 0.02 0.00 86 1020.8
20260901074557 63 121 1.0 3.0 0.00 0.02 0.00 86 1020.8
20260901074037 63 125 1.0 3.0 0.00 0.02 0.00 86 1020.9
20260901073537 63 119 0.0 3.0 0.00 0.02 0.00 86 1020.9
20260901073056 63 118 0.0 3.0 0.00 0.02 0.00 86 1020.9
20260901072537 63 125 0.0 6.0 0.00 0.02 0.00 87 1020.8
20260901072037 63 97 2.0 7.0 0.00 0.02 0.00 86 1020.8
20260901071604 63 94 2.0 7.0 0.00 0.02 0.00 86 1020.9
20260901071036 63 124 3.0 8.0 0.00 0.02 0.00 85 1020.9
20260901070537 63 132 3.0 8.0 0.00 0.02 0.00 84 1021.0
20260901070104 63 138 2.0 8.0 0.00 0.02 0.00 83 1021.3
20260901065538 63 94 3.0 8.0 0.00 0.02 0.00 83 1021.1
20260901065038 64 137 2.0 8.0 0.00 0.02 0.00 83 1020.8
20260901064608 63 90 2.0 8.0 0.00 0.02 0.00 83 1020.5
20260901064038 63 112 3.0 8.0 0.00 0.02 0.00 83 1020.5
20260901063538 63 128 1.0 3.0 0.00 0.02 0.00 82 1020.3
20260901063114 63 204 0.0 3.0 0.00 0.02 0.00 82 1020.0
20260901062537 63 0 0.0 2.0 0.00 0.02 0.00 82 1020.1
20260901062037 63 0 0.0 1.0 0.00 0.02 0.00 82 1020.0
20260901061559 63 0 0.0 1.0 0.00 0.02 0.00 83 1019.9
20260901061038 63 0 0.0 0.0 0.00 0.02 0.00 83 1019.9
20260901060538 63 0 0.0 0.0 0.00 0.02 0.00 83 1019.9
20260901060054 63 0 0.0 1.0 0.00 0.02 0.00 83 1019.9
20260901055537 63 0 0.0 2.0 0.00 0.02 0.02 83 1020.0
20260901055038 63 249 0.0 2.0 0.00 0.02 0.02 84 1020.1
20260901054600 63 0 0.0 3.0 0.00 0.02 0.02 84 1020.3
20260901054038 63 250 1.0 4.0 0.00 0.02 0.02 84 1020.3
20260901053540 63 240 2.0 4.0 0.00 0.02 0.02 84 1020.5
20260901053114 63 243 2.0 4.0 0.00 0.02 0.02 83 1020.6
20260901052537 64 254 3.0 4.0 0.00 0.02 0.02 83 1020.6
20260901052037 64 258 0.0 2.0 0.01 0.02 0.02 82 1020.7
20260901051559 64 0 0.0 1.0 0.01 0.02 0.02 82 1020.7
20260901051037 64 0 0.0 1.0 0.02 0.02 0.02 82 1020.6
20260901050537 64 92 0.0 2.0 0.02 0.02 0.02 81 1020.6
20260901050055 64 0 0.0 6.0 0.02 0.02 0.02 80 1020.3
20260901045537 64 0 0.0 6.0 0.02 0.02 0.02 80 1020.3
20260901045037 64 93 3.0 6.0 0.02 0.02 0.02 79 1020.3
20260901044550 64 42 0.0 3.0 0.02 0.02 0.02 78 1020.3
20260901044037 65 43 1.0 3.0 0.02 0.02 0.02 78 1020.3
20260901043537 65 0 0.0 5.0 0.02 0.02 0.02 75 1020.7
20260901043100 65 0 0.0 6.0 0.02 0.02 0.02 75 1021.3
20260901042537 66 179 3.0 9.0 0.02 0.02 0.02 73 1021.6
20260901042037 67 208 3.0 13.0 0.01 0.01 0.01 72 1021.8
20260901041557 68 162 4.0 14.0 0.01 0.01 0.01 69 1022.0
20260901041034 69 222 7.0 14.0 0.00 0.00 0.00 66 1022.1
20260901040537 70 216 6.0 15.0 0.00 0.00 0.00 62 1022.1
20260901040057 70 214 7.0 16.0 0.00 0.00 0.00 58 1022.2
20260901035536 71 167 9.0 18.0 0.00 0.00 0.00 56 1022.2
20260901035038 72 228 6.0 18.0 0.00 0.00 0.00 56 1022.3
20260901034558 72 170 8.0 18.0 0.00 0.00 0.00 51 1022.2
20260901034034 72 191 4.0 8.0 0.00 0.00 0.00 48 1022.1
20260901033534 72 238 1.0 8.0 0.00 0.00 0.00 47 1021.3
20260901033058 72 0 1.0 8.0 0.00 0.00 0.00 48 1020.9
20260901032535 72 285 2.0 9.0 0.00 0.00 0.00 48 1020.5
20260901032038 72 248 2.0 9.0 0.00 0.00 0.00 48 1020.4
20260901031556 72 330 4.0 9.0 0.00 0.00 0.00 47 1020.3
20260901031034 72 2 3.0 6.0 0.00 0.00 0.00 48 1020.3
20260901030537 72 17 2.0 9.0 0.00 0.00 0.00 49 1020.3
20260901030054 73 309 1.0 9.0 0.00 0.00 0.00 49 1020.2
20260901025537 73 347 2.0 10.0 0.00 0.00 0.00 48 1020.0
20260901025037 73 279 3.0 10.0 0.00 0.00 0.00 48 1020.0
20260901024602 73 313 3.0 10.0 0.00 0.00 0.00 47 1020.1
20260901024040 74 320 3.0 9.0 0.00 0.00 0.00 47 1020.1
20260901023535 74 338 2.0 9.0 0.00 0.00 0.00 47 1019.9
20260901023059 75 290 3.0 10.0 0.00 0.00 0.00 47 1019.8
20260901022534 75 325 2.0 11.0 0.00 0.00 0.00 45 1019.7
20260901022034 75 316 4.0 11.0 0.00 0.00 0.00 45 1019.7
20260901021558 75 329 3.0 12.0 0.00 0.00 0.00 45 1019.7
20260901021040 76 242 2.0 13.0 0.00 0.00 0.00 43 1019.7
20260901020538 76 342 3.0 15.0 0.00 0.00 0.00 42 1019.6
20260901020058 77 303 5.0 15.0 0.00 0.00 0.00 41 1019.6
20260901015534 77 296 5.0 12.0 0.00 0.00 0.00 40 1019.5
20260901015037 77 304 3.0 10.0 0.00 0.00 0.00 39 1019.4
20260901014555 78 270 3.0 9.0 0.00 0.00 0.00 38 1019.4
20260901014037 78 293 1.0 4.0 0.00 0.00 0.00 40 1019.3
20260901013534 78 0 1.0 6.0 0.00 0.00 0.00 42 1019.2
20260901013104 78 248 1.0 6.0 0.00 0.00 0.00 40 1019.2
20260901012533 78 250 1.0 6.0 0.00 0.00 0.00 41 1019.1
20260901012040 79 87 2.0 4.0 0.00 0.00 0.00 42 1018.9
20260901011555 79 88 2.0 6.0 0.00 0.00 0.00 42 1018.8
20260901011037 79 104 3.0 6.0 0.00 0.00 0.00 40 1018.8
20260901010537 79 102 3.0 4.0 0.00 0.00 0.00 41 1018.8
20260901010058 79 99 1.0 3.0 0.00 0.00 0.00 44 1018.7
20260901005535 79 100 0.0 4.0 0.00 0.00 0.00 39 1018.7
20260901005038 80 121 1.0 4.0 0.00 0.00 0.00 38 1018.7
20260901004603 80 114 0.0 3.0 0.00 0.00 0.00 35 1018.6
20260901004034 81 140 0.0 3.0 0.00 0.00 0.00 39 1018.7
20260901003541 81 166 0.0 3.0 0.00 0.00 0.00 31 1018.6
20260901003107 81 0 0.0 3.0 0.00 0.00 0.00 31 1018.6
20260901002537 81 0 0.0 4.0 0.00 0.00 0.00 31 1018.7
20260901002037 81 0 1.0 4.0 0.00 0.00 0.00 31 1018.6
20260901001555 82 347 1.0 6.0 0.00 0.00 0.00 30 1018.7
20260901001034 82 347 1.0 6.0 0.00 0.00 0.00 30 1018.6
20260901000538 82 347 2.0 6.0 0.00 0.00 0.00 29 1018.7
20260901000053 82 347 2.0 9.0 0.00 0.00 0.00 30 1018.6
20260831235537 82 347 2.0 9.0 0.00 0.00 0.00 30 1018.6
20260831235040 83 148 2.0 10.0 0.00 0.00 0.00 31 1018.6
20260831234553 83 148 4.0 10.0 0.00 0.00 0.00 29 1018.5
20260831234039 83 110 5.0 10.0 0.00 0.00 0.00 29 1018.5
20260831233538 83 129 5.0 12.0 0.00 0.00 0.00 29 1018.5
20260831233054 83 85 4.0 12.0 0.00 0.00 0.00 29 1018.5
20260831232537 83 118 4.0 12.0 0.00 0.00 0.00 31 1018.6
20260831232034 83 150 4.0 12.0 0.00 0.00 0.00 29 1018.6
20260831231613 83 132 3.0 9.0 0.00 0.00 0.00 30 1018.6
20260831231040 83 167 3.0 11.0 0.00 0.00 0.00 30 1018.7
20260831230539 84 121 3.0 14.0 0.00 0.00 0.00 29 1018.7
20260831230058 84 183 5.0 14.0 0.00 0.00 0.00 29 1018.8
20260831225534 84 154 4.0 10.0 0.00 0.00 0.00 29 1018.7
20260831225036 84 129 3.0 12.0 0.00 0.00 0.00 30 1018.7
20260831224558 84 131 3.0 13.0 0.00 0.00 0.00 30 1018.6
20260831224038 84 169 5.0 13.0 0.00 0.00 0.00 30 1018.6
20260831223538 84 146 6.0 14.0 0.00 0.00 0.00 31 1018.6
20260831223101 84 127 5.0 14.0 0.00 0.00 0.00 31 1018.7
20260831222537 85 159 7.0 13.0 0.00 0.00 0.00 30 1018.7
20260831222038 85 90 3.0 10.0 0.00 0.00 0.00 32 1018.6
20260831221551 85 108 4.0 10.0 0.00 0.00 0.00 30 1018.6
20260831221037 85 144 4.0 10.0 0.00 0.00 0.00 32 1018.7
20260831220537 85 180 5.0 11.0 0.00 0.00 0.00 31 1018.7
20260831220050 85 191 4.0 12.0 0.00 0.00 0.00 31 1018.6
20260831215537 85 163 5.0 12.0 0.00 0.00 0.00 31 1018.7
20260831215037 85 105 2.0 11.0 0.00 0.00 0.00 31 1018.7
20260831214556 85 131 4.0 11.0 0.00 0.00 0.00 29 1018.7
20260831214038 85 112 5.0 11.0 0.00 0.00 0.00 30 1018.8
20260831213537 85 234 4.0 11.0 0.00 0.00 0.00 32 1018.8
20260831213058 84 195 4.0 10.0 0.00 0.00 0.00 33 1018.9
20260831212537 84 203 3.0 10.0 0.00 0.00 0.00 33 1019.1
20260831212041 84 198 5.0 9.0 0.00 0.00 0.00 33 1019.1
20260831211603 84 188 2.0 8.0 0.00 0.00 0.00 33 1019.3
20260831211034 83 202 3.0 10.0 0.00 0.00 0.00 34 1019.3
20260831210536 83 177 4.0 10.0 0.00 0.00 0.00 33 1019.4
20260831210100 82 123 5.0 10.0 0.00 0.00 0.00 33 1019.4
20260831205534 83 101 2.0 9.0 0.00 0.00 0.00 32 1019.5
20260831205034 83 194 3.0 10.0 0.00 0.00 0.00 32 1019.6
20260831204555 83 127 4.0 10.0 0.00 0.00 0.00 31 1019.8
20260831204038 83 146 4.0 9.0 0.00 0.00 0.00 33 1019.8
20260831203537 83 212 3.0 9.0 0.00 0.00 0.00 34 1019.9
20260831203058 83 164 3.0 11.0 0.00 0.00 0.00 34 1020.0
20260831202537 84 135 5.0 11.0 0.00 0.00 0.00 32 1020.1
20260831202037 84 182 3.0 10.0 0.00 0.00 0.00 33 1020.1
20260831201559 84 174 4.0 10.0 0.00 0.00 0.00 34 1020.2
20260831201038 83 165 3.0 9.0 0.00 0.00 0.00 33 1020.3
20260831200534 83 159 4.0 9.0 0.00 0.00 0.00 32 1020.4
20260831200101 83 215 2.0 8.0 0.00 0.00 0.00 32 1020.4
20260831195539 82 206 3.0 8.0 0.00 0.00 0.00 35 1020.4
20260831195037 83 178 3.0 9.0 0.00 0.00 0.00 33 1020.5
20260831194636 83 194 2.0 10.0 0.00 0.00 0.00 35 1020.7
20260831194036 82 165 4.0 10.0 0.00 0.00 0.00 34 1020.7
20260831193536 82 196 2.0 10.0 0.00 0.00 0.00 37 1020.8
20260831193058 81 156 4.0 10.0 0.00 0.00 0.00 35 1020.8
20260831192537 81 107 3.0 9.0 0.00 0.00 0.00 36 1020.8
20260831192037 80 192 1.0 7.0 0.00 0.00 0.00 37 1021.0
20260831191550 80 0 3.0 7.0 0.00 0.00 0.00 38 1021.0
20260831191037 80 116 3.0 9.0 0.00 0.00 0.00 36 1021.1
20260831190535 80 94 2.0 9.0 0.00 0.00 0.00 39 1021.1
20260831190108 80 162 3.0 9.0 0.00 0.00 0.00 34 1021.1
20260831185537 80 88 3.0 9.0 0.00 0.00 0.00 37 1021.2
20260831185039 80 139 3.0 9.0 0.00 0.00 0.00 35 1021.3
20260831184600 80 145 4.0 9.0 0.00 0.00 0.00 34 1021.3
20260831184036 80 126 2.0 10.0 0.00 0.00 0.00 36 1021.3
20260831183534 80 115 1.0 10.0 0.00 0.00 0.00 36 1021.3
20260831183054 80 123 4.0 7.0 0.00 0.00 0.00 33 1021.4
20260831182536 80 164 2.0 6.0 0.00 0.00 0.00 34 1021.3
20260831182036 79 200 1.0 7.0 0.00 0.00 0.00 35 1021.4
20260831181554 80 179 3.0 8.0 0.00 0.00 0.00 35 1021.4
20260831181036 79 125 1.0 9.0 0.00 0.00 0.00 35 1021.5
20260831180536 79 142 4.0 9.0 0.00 0.00 0.00 37 1021.6
20260831180100 79 170 2.0 8.0 0.00 0.00 0.00 35 1021.6
20260831175540 79 156 3.0 8.0 0.00 0.00 0.00 33 1021.6
20260831175036 79 74 3.0 8.0 0.00 0.00 0.00 34 1021.6
20260831174555 80 177 2.0 6.0 0.00 0.00 0.00 34 1021.7
20260831174034 80 180 2.0 8.0 0.00 0.00 0.00 34 1021.7
20260831173533 80 183 3.0 8.0 0.00 0.00 0.00 36 1021.7
20260831173057 80 173 1.0 7.0 0.00 0.00 0.00 36 1021.8
20260831172536 80 185 3.0 7.0 0.00 0.00 0.00 34 1021.7
20260831172037 79 117 1.0 4.0 0.00 0.00 0.00 35 1021.8
20260831171600 78 91 0.0 4.0 0.00 0.00 0.00 41 1021.7
20260831171037 78 0 2.0 6.0 0.00 0.00 0.00 37 1021.8
20260831170537 79 200 1.0 6.0 0.00 0.00 0.00 38 1021.7
20260831170114 79 98 2.0 6.0 0.00 0.00 0.00 38 1021.7
20260831165541 80 127 1.0 4.0 0.00 0.00 0.00 41 1021.8
20260831165036 79 232 1.0 6.0 0.00 0.00 0.00 36 1021.8
20260831164553 79 247 2.0 6.0 0.00 0.00 0.00 39 1021.8
20260831164036 78 208 2.0 6.0 0.00 0.00 0.00 39 1021.8
20260831163534 78 129 1.0 5.0 0.00 0.00 0.00 39 1021.8
20260831163050 78 79 0.0 5.0 0.00 0.00 0.00 39 1021.8
20260831162537 78 145 2.0 5.0 0.00 0.00 0.00 40 1021.8
20260831162037 76 0 0.0 2.0 0.00 0.00 0.00 41 1021.7
20260831161601 76 69 1.0 3.0 0.00 0.00 0.00 38 1021.6
20260831161038 75 0 1.0 3.0 0.00 0.00 0.00 41 1021.6
20260831160536 76 46 0.0 3.0 0.00 0.00 0.00 39 1021.6
20260831160057 76 0 0.0 3.0 0.00 0.00 0.00 41 1021.6
20260831155539 76 101 1.0 3.0 0.00 0.00 0.00 42 1021.6
20260831155039 75 92 1.0 3.0 0.00 0.00 0.00 39 1021.7
20260831154629 75 39 1.0 3.0 0.00 0.00 0.00 39 1021.7
20260831154038 75 42 1.0 3.0 0.00 0.00 0.00 45 1021.5
20260831153539 75 252 0.0 2.0 0.00 0.00 0.00 47 1021.5
20260831153117 74 0 0.0 2.0 0.00 0.00 0.00 43 1021.5
20260831152539 73 65 0.0 2.0 0.00 0.00 0.00 46 1021.4
20260831152039 73 88 0.0 4.0 0.00 0.00 0.00 48 1021.5
20260831151603 72 0 0.0 4.0 0.00 0.00 0.00 49 1021.5
20260831151040 72 0 2.0 4.0 0.00 0.00 0.00 49 1021.6
20260831150538 71 187 0.0 4.0 0.00 0.00 0.00 50 1021.5
20260831150057 71 187 2.0 4.0 0.00 0.00 0.00 52 1021.5
20260831145540 72 107 1.0 4.0 0.00 0.00 0.00 53 1021.6
20260831145039 70 225 2.0 4.0 0.00 0.00 0.00 51 1021.6
20260831144638 71 335 0.0 2.0 0.00 0.00 0.00 54 1021.5
20260831144038 69 285 0.0 2.0 0.00 0.00 0.00 60 1021.5
20260831143543 66 0 0.0 2.0 0.00 0.00 0.00 60 1021.3
20260831143103 65 0 0.0 2.0 0.00 0.00 0.00 64 1021.3
20260831142538 65 0 0.0 2.0 0.00 0.00 0.00 68 1021.3
20260831142037 64 0 0.0 2.0 0.00 0.00 0.00 69 1021.3
20260831141601 63 0 0.0 2.0 0.00 0.00 0.00 71 1021.3
20260831141040 62 60 0.0 2.0 0.00 0.00 0.00 72 1021.3
20260831140539 62 0 0.0 2.0 0.00 0.00 0.00 73 1021.1
20260831140058 61 0 0.0 3.0 0.00 0.00 0.00 74 1021.0
20260831135538 61 0 0.0 3.0 0.00 0.00 0.00 75 1021.1
20260831135038 60 0 1.0 3.0 0.00 0.00 0.00 76 1021.1
20260831134601 60 0 0.0 2.0 0.00 0.00 0.00 77 1021.1
20260831134038 60 132 0.0 2.0 0.00 0.00 0.00 77 1021.0